Weather History for KBLU - April, 2013

Change the Weather History Date:

Monday, April 8, 2013

  Actual Average Record
Temperature  
Mean Temperature 36 °F -  
Max Temperature 44 °F 50 °F 70 °F (1951)
Min Temperature 30 °F 33 °F 19 °F (1953)
Degree Days  
Heating Degree Days 28    
Moisture  
Dew Point 27 °F    
Average Humidity 78    
Maximum Humidity 100    
Minimum Humidity 38    
Precipitation  
Precipitation 0.21 in - - ()
Sea Level Pressure  
Sea Level Pressure 29.79 in    
Wind  
Wind Speed 7 mph (North)    
Max Wind Speed 16 mph    
Max Gust Speed 32 mph    
Visibility 6 miles    
Events Fog , Snow    
Averages and records for this station are not official NWS values.
T = Trace of Precipitation, MM = Missing Value Source: NWS Daily Summary

Daily Weather History Graph

Daily Weather History Graph

Search for Another Location

Airport or City:

Trip Planner

Search our weather history database for the weather conditions in past years. The results will help you decide how hot, cold, wet, or windy it might be!

Date:

Astronomy

Apr. 08, 2013 Rise Set
Actual Time 6:35 AM PDT 7:33 PM PDT
Civil Twilight 6:08 AM PDT 8:01 PM PDT
Nautical Twilight 5:36 AM PDT 8:33 PM PDT
Astronomical Twilight 5:02 AM PDT 9:07 PM PDT
Moon 5:28 AM PDT (4/8) 6:13 PM PDT (4/8)
Length of Visible Light 13h 52m
Length of Day
12h 58m
Waning Crescent, 3% of the Moon is Illuminated
Apr 8
Waning Crescent
Apr 10
New
Apr 18
First Quarter
Apr 25
Full
May 2
Last Quarter

Hourly Weather History & Observations

Time (PDT) Temp. Windchill Dew Point Humidity Pressure Visibility Wind Dir Wind Speed Gust Speed Precip Events Conditions
12:25 AM 32.0 °F 24.8 °F 32.0 °F 100% 29.72 in 1.0 mi South 8.1 mph - 0.04 in Snow Light Snow
12:32 AM 32.0 °F 24.2 °F 32.0 °F 100% 29.72 in 0.8 mi South 9.2 mph - 0.05 in Snow Light Snow
12:52 AM 32.0 °F 24.8 °F 32.0 °F 100% 29.66 in 0.2 mi South 8.1 mph - 0.09 in Fog , Snow Heavy Snow
1:02 AM 32.0 °F 26.4 °F 32.0 °F 100% 29.71 in 0.5 mi South 5.8 mph - 0.05 in Fog , Snow Snow
1:49 AM 32.0 °F 27.5 °F 32.0 °F 100% 29.70 in 1.0 mi South 4.6 mph - 0.07 in Snow Light Snow
1:52 AM 32.0 °F 27.5 °F 32.0 °F 100% 29.64 in 1.0 mi South 4.6 mph - 0.08 in Snow Light Snow
2:11 AM 30.2 °F - 30.2 °F 100% 29.70 in 0.8 mi Calm Calm - 0.01 in Snow Light Snow
2:18 AM 30.2 °F - 30.2 °F 100% 29.70 in 1.0 mi Calm Calm - 0.01 in Snow Light Snow
2:52 AM 32.0 °F - 30.9 °F 96% 29.64 in 1.2 mi Calm Calm - 0.03 in Snow Light Snow
2:55 AM 32.0 °F - 30.2 °F 93% 29.69 in 2.0 mi Calm Calm - 0.00 in Snow Light Snow
3:03 AM 32.0 °F 26.4 °F 30.2 °F 93% 29.69 in 1.2 mi NW 5.8 mph - 0.00 in Snow Light Snow
3:13 AM 32.0 °F 28.7 °F 30.2 °F 93% 29.69 in 0.5 mi NW 3.5 mph - 0.01 in Fog , Snow Light Snow
3:24 AM 32.0 °F 28.7 °F 30.2 °F 93% 29.69 in 0.5 mi WNW 3.5 mph - 0.01 in Fog Fog
3:52 AM 30.9 °F 25.2 °F 30.0 °F 96% 29.66 in 1.2 mi WNW 5.8 mph - 0.01 in Snow Light Snow
4:00 AM 30.2 °F 21.9 °F 30.2 °F 100% 29.70 in 2.0 mi NW 9.2 mph 19.6 mph 0.00 in Snow Light Snow
4:09 AM 30.2 °F 21.3 °F 30.2 °F 100% 29.69 in 4.0 mi NW 10.4 mph - 0.00 in Snow Light Snow
4:16 AM 30.2 °F 23.4 °F 30.2 °F 100% 29.69 in 6.0 mi NNW 6.9 mph - 0.00 in Snow Light Snow
4:52 AM 30.0 °F - 28.9 °F 96% 29.65 in 10.0 mi Calm Calm - 0.00 in   Clear
5:52 AM 30.9 °F 27.5 °F 30.0 °F 96% 29.66 in 10.0 mi NNW 3.5 mph - N/A   Overcast
6:52 AM 30.0 °F 21.7 °F 27.0 °F 88% 29.70 in 10.0 mi NNE 9.2 mph 18.4 mph N/A   Overcast
7:52 AM 30.9 °F 24.3 °F 27.0 °F 85% 29.75 in 10.0 mi Variable 6.9 mph - N/A   Mostly Cloudy
8:52 AM 30.9 °F 24.3 °F 24.1 °F 76% 29.79 in 10.0 mi Variable 6.9 mph 18.4 mph N/A   Mostly Cloudy
9:52 AM 33.1 °F 23.4 °F 24.1 °F 70% 29.81 in 8.0 mi NE 13.8 mph 32.2 mph 0.00 in   Partly Cloudy
10:52 AM 34.0 °F 23.8 °F 25.0 °F 70% 29.84 in 10.0 mi NE 16.1 mph 27.6 mph N/A   Clear
11:52 AM 36.0 °F 29.0 °F 24.1 °F 62% 29.87 in 10.0 mi North 9.2 mph 25.3 mph N/A   Clear
12:52 PM 37.0 °F 30.4 °F 26.1 °F 65% 29.89 in 10.0 mi ENE 9.2 mph 17.3 mph N/A   Clear
1:52 PM 39.9 °F 34.5 °F 21.9 °F 49% 29.89 in 10.0 mi NE 8.1 mph 21.9 mph N/A   Clear
2:52 PM 42.1 °F 36.1 °F 21.9 °F 45% 29.89 in 10.0 mi NNE 10.4 mph 18.4 mph N/A   Clear
3:52 PM 43.0 °F 36.8 °F 21.0 °F 42% 29.89 in 10.0 mi North 11.5 mph 23.0 mph N/A   Clear
4:52 PM 43.0 °F 37.2 °F 19.0 °F 38% 29.91 in 10.0 mi North 10.4 mph 20.7 mph N/A   Clear
5:52 PM 42.1 °F 36.1 °F 19.9 °F 41% 29.92 in 10.0 mi North 10.4 mph 27.6 mph N/A   Clear
6:52 PM 41.0 °F 35.2 °F 21.0 °F 45% 29.94 in 10.0 mi North 9.2 mph 19.6 mph N/A   Clear
7:52 PM 37.9 °F 32.1 °F 21.9 °F 53% 29.97 in 10.0 mi North 8.1 mph - N/A   Clear
8:52 PM 37.9 °F 32.7 °F 21.0 °F 51% 29.99 in 10.0 mi Variable 6.9 mph - N/A   Clear
9:52 PM 37.9 °F 33.5 °F 21.0 °F 51% 30.00 in 10.0 mi NNE 5.8 mph 17.3 mph N/A   Clear
10:52 PM 37.0 °F 31.0 °F 19.0 °F 48% 30.01 in 10.0 mi NNE 8.1 mph - N/A   Clear
11:52 PM 36.0 °F 30.3 °F 21.0 °F 55% 30.00 in 10.0 mi Variable 6.9 mph - N/A   Clear